FW4559 Weather Reports


time (UTC)temp
F
wind
direction
speed
knots
gust
knots
rain 1hr
in
rain 24hr
in
rain mn
in
humidity
%
barometer
mb
20260509225045 65 322 0.9 6.1 0.00 0.00 0.00 52 1010.4
20260509224545 65 315 3.5 6.1 0.00 0.00 0.00 50 1010.5
20260509224045 66 300 0.9 9.6 0.00 0.00 0.00 50 1010.4
20260509223545 66 342 2.6 9.6 0.00 0.00 0.00 49 1010.4
20260509223050 66 21 4.3 9.6 0.00 0.00 0.00 48 1010.2
20260509222549 67 329 5.2 9.6 0.00 0.00 0.00 47 1010.0
20260509222044 67 274 0.9 9.6 0.00 0.00 0.00 47 1010.1
20260509221546 67 261 1.7 8.7 0.00 0.00 0.00 46 1010.1
20260509221043 67 230 1.7 8.7 0.00 0.00 0.00 46 1010.1
20260509220543 67 132 4.3 9.6 0.00 0.00 0.00 46 1010.1
20260509220045 67 311 4.3 11.3 0.00 0.00 0.00 48 1010.0
20260509215547 67 82 4.3 14.8 0.00 0.00 0.00 49 1009.9
20260509215041 67 13 5.2 14.8 0.00 0.00 0.00 48 1009.8
20260509214542 68 41 3.5 8.7 0.00 0.00 0.00 47 1010.1
20260509214043 68 350 4.3 10.4 0.00 0.00 0.00 47 1010.0
20260509213541 68 280 4.3 10.4 0.00 0.00 0.00 48 1010.1
20260509213045 68 215 3.5 9.6 0.00 0.00 0.00 47 1010.1
20260509212540 68 284 3.5 9.6 0.00 0.00 0.00 46 1010.0
20260509212040 68 170 2.6 9.6 0.00 0.00 0.00 47 1009.8
20260509211541 68 129 2.6 9.6 0.00 0.00 0.00 47 1009.7
20260509211040 68 339 4.3 9.6 0.00 0.00 0.00 46 1009.6
20260509210540 69 144 2.6 8.7 0.00 0.00 0.00 45 1009.6
20260509210051 68 216 1.7 9.6 0.00 0.00 0.00 47 1009.7
20260509205539 69 325 4.3 10.4 0.00 0.00 0.00 45 1009.6
20260509205039 69 183 2.6 13.9 0.00 0.00 0.00 45 1009.6
20260509204538 69 135 0.9 9.6 0.00 0.00 0.00 44 1009.5
20260509204039 69 187 1.7 8.7 0.00 0.00 0.00 44 1009.6
20260509203539 68 157 1.7 10.4 0.00 0.00 0.00 46 1009.4
20260509203038 68 218 4.3 10.4 0.00 0.00 0.00 45 1009.3
20260509202540 68 215 2.6 11.3 0.00 0.00 0.00 46 1009.4
20260509202038 68 350 5.2 13.0 0.00 0.00 0.00 45 1009.5
20260509201536 68 297 3.5 13.0 0.00 0.00 0.00 46 1009.4
20260509201035 68 320 2.6 10.4 0.00 0.00 0.00 47 1009.4
20260509200534 68 243 2.6 8.7 0.00 0.00 0.00 58 1009.4
20260509200040 68 127 2.6 7.0 0.00 0.00 0.00 61 1009.3
20260509195538 67 91 0.9 3.5 0.00 0.00 0.00 60 1009.4
20260509195033 68 148 0.0 3.5 0.00 0.00 0.00 60 1009.6
20260509194534 68 183 0.0 1.7 0.00 0.00 0.00 61 1009.5
20260509194035 67 131 0.0 6.1 0.00 0.00 0.00 63 1009.4
20260509193533 66 337 0.9 7.8 0.00 0.00 0.00 64 1009.4
20260509193032 66 103 0.9 5.2 0.00 0.00 0.00 64 1009.4
20260509192531 66 153 0.9 5.2 0.00 0.00 0.00 63 1009.6
20260509192031 66 117 1.7 5.2 0.00 0.00 0.00 63 1009.5
20260509191532 66 138 0.9 5.2 0.00 0.00 0.00 62 1009.6
20260509191035 67 137 1.7 6.1 0.00 0.00 0.00 60 1009.4
20260509190531 67 157 0.0 2.6 0.00 0.00 0.00 61 1009.6
20260509190039 67 62 0.0 2.6 0.00 0.00 0.00 60 1009.6
20260509185534 67 203 0.0 6.1 0.00 0.00 0.00 61 1009.5
20260509185031 67 85 1.7 6.1 0.00 0.00 0.00 59 1009.3
20260509184535 68 168 1.7 4.3 0.00 0.00 0.00 57 1009.4
20260509184029 68 210 0.0 1.7 0.00 0.00 0.00 61 1009.3
20260509183529 67 110 0.0 7.0 0.00 0.00 0.00 61 1009.4
20260509183129 66 145 2.6 7.0 0.00 0.00 0.00 60 1009.3
20260509182529 66 117 1.7 6.1 0.00 0.00 0.00 61 1009.3
20260509182028 66 15 0.9 4.3 0.00 0.00 0.00 61 1009.6
20260509181528 67 57 1.7 4.3 0.00 0.00 0.00 60 1009.5
20260509181028 67 105 0.9 7.0 0.00 0.00 0.00 58 1009.7
20260509180528 68 153 1.7 8.7 0.00 0.00 0.00 57 1009.8
20260509180027 70 111 3.5 8.7 0.00 0.00 0.00 53 1009.7
20260509175525 70 130 0.9 7.8 0.00 0.00 0.00 55 1009.7
20260509175024 70 181 0.9 4.3 0.00 0.00 0.00 55 1009.9
20260509174523 69 113 0.9 6.1 0.00 0.00 0.00 56 1010.1
20260509174022 68 179 2.6 7.0 0.00 0.00 0.00 57 1010.2
20260509173520 67 181 1.7 8.7 0.00 0.00 0.00 59 1010.1
20260509173050 67 162 4.3 8.7 0.00 0.00 0.00 59 1010.0
20260509172519 66 140 2.6 7.0 0.00 0.00 0.00 62 1010.0
20260509172017 66 136 2.6 7.8 0.00 0.00 0.00 62 1010.1
20260509171524 65 158 2.6 7.8 0.00 0.00 0.00 63 1010.2
20260509171014 64 116 2.6 7.0 0.00 0.00 0.00 64 1010.2
20260509170513 64 160 3.5 7.8 0.00 0.00 0.00 65 1010.4
20260509170015 63 207 3.5 7.8 0.00 0.00 0.00 68 1010.4
20260509165512 63 189 3.5 7.8 0.00 0.00 0.00 66 1010.4
20260509165010 63 141 2.6 7.0 0.00 0.00 0.00 66 1010.5
20260509164514 63 212 3.5 7.0 0.00 0.00 0.00 66 1010.6
20260509164012 64 131 2.6 7.0 0.00 0.00 0.00 66 1010.6
20260509163510 63 105 2.6 7.0 0.00 0.00 0.00 65 1010.8
20260509163016 64 206 2.6 7.8 0.00 0.00 0.00 66 1010.7
20260509162509 63 156 2.6 9.6 0.00 0.00 0.00 65 1010.8
20260509162009 63 156 3.5 6.1 0.00 0.00 0.00 64 1010.8
20260509161508 63 147 2.6 8.7 0.00 0.00 0.00 66 1010.9
20260509161010 63 194 3.5 9.6 0.00 0.00 0.00 67 1010.9
20260509160507 63 162 4.3 10.4 0.00 0.00 0.00 66 1011.0
20260509160014 63 86 4.3 10.4 0.00 0.00 0.00 67 1010.9
20260509155506 63 139 2.6 7.0 0.00 0.00 0.00 66 1011.0
20260509155008 63 181 2.6 7.0 0.00 0.00 0.00 65 1010.9
20260509154505 63 191 2.6 6.1 0.00 0.00 0.00 66 1010.9
20260509154005 63 155 2.6 6.1 0.00 0.00 0.00 66 1010.8
20260509153503 63 147 2.6 6.1 0.00 0.00 0.00 67 1010.9
20260509153005 62 127 0.9 5.2 0.00 0.00 0.00 67 1010.8
20260509152502 62 169 2.6 4.3 0.00 0.00 0.00 68 1010.8
20260509152102 61 185 1.7 7.0 0.00 0.00 0.00 69 1010.8
20260509151625 61 145 2.6 7.0 0.00 0.00 0.00 70 1010.8
20260509151058 60 221 0.9 4.3 0.00 0.00 0.00 72 1010.7
20260509150557 60 95 1.7 5.2 0.00 0.00 0.00 71 1010.6
20260509150057 60 130 2.6 7.0 0.00 0.00 0.00 72 1010.6
20260509145556 59 161 3.5 7.0 0.00 0.00 0.00 72 1010.7
20260509145057 59 158 2.6 5.2 0.00 0.00 0.00 72 1010.8
20260509144555 60 165 1.7 5.2 0.00 0.00 0.00 72 1010.9
20260509144055 60 169 0.9 5.2 0.00 0.00 0.00 73 1010.8
20260509143553 59 153 1.7 4.3 0.00 0.00 0.00 73 1010.7
20260509143103 59 155 0.9 6.1 0.00 0.00 0.00 73 1010.8
20260509142553 59 160 1.7 6.1 0.00 0.00 0.00 72 1010.6
20260509142054 59 190 2.6 4.3 0.00 0.00 0.00 72 1010.7
20260509141553 59 130 0.9 4.3 0.00 0.00 0.00 73 1010.8
20260509141052 58 202 0.0 3.5 0.00 0.00 0.00 75 1010.9
20260509140548 58 215 0.9 5.2 0.00 0.00 0.00 76 1011.0
20260509140048 57 144 1.7 7.0 0.00 0.00 0.00 77 1011.2
20260509135552 57 172 2.6 7.0 0.00 0.00 0.00 76 1010.9
20260509135050 57 137 2.6 5.2 0.00 0.00 0.00 76 1010.8
20260509134547 57 153 1.7 5.2 0.00 0.00 0.00 78 1010.8
20260509134047 56 139 1.7 7.8 0.00 0.00 0.00 78 1010.7
20260509133546 57 215 4.3 7.8 0.00 0.00 0.00 77 1010.7
20260509133046 57 166 3.5 6.1 0.00 0.00 0.00 76 1010.7
20260509132544 57 143 2.6 5.2 0.00 0.00 0.00 75 1010.8
20260509132043 57 149 1.7 5.2 0.00 0.00 0.00 76 1010.8
20260509131556 57 210 2.6 5.2 0.00 0.00 0.00 75 1010.8
20260509131042 57 147 1.7 4.3 0.00 0.00 0.00 75 1010.8
20260509130542 57 159 1.7 4.3 0.00 0.00 0.00 76 1011.0
20260509125538 55 203 0.0 1.7 0.00 0.00 0.00 81 1011.5
20260509125038 55 146 0.9 1.7 0.00 0.00 0.00 81 1011.3
20260509124541 54 162 0.0 0.9 0.00 0.00 0.00 83 1011.5
20260509124035 53 10 0.0 0.9 0.00 0.00 0.00 87 1011.7
20260509123534 51 10 0.0 0.9 0.00 0.00 0.00 89 1011.8
20260509123100 50 10 0.0 0.9 0.00 0.00 0.00 90 1011.9
20260509122533 49 10 0.0 0.9 0.00 0.00 0.00 92 1012.0
20260509122033 48 10 0.0 0.9 0.00 0.00 0.00 93 1012.0
20260509121538 48 10 0.0 0.9 0.00 0.00 0.00 95 1011.8
20260509121035 47 10 0.0 1.7 0.00 0.00 0.00 95 1012.0
20260509120535 46 11 0.0 1.7 0.00 0.00 0.00 95 1012.1
20260509120043 45 360 0.0 1.7 0.00 0.00 0.00 95 1011.9
20260509115533 44 1 0.0 1.7 0.00 0.00 0.00 95 1012.1
20260509115033 43 1 0.9 1.7 0.00 0.00 0.00 95 1012.1
20260509114537 43 137 0.0 0.0 0.00 0.00 0.00 95 1012.0
20260509114032 43 137 0.0 0.9 0.00 0.00 0.00 95 1012.0
20260509113532 43 137 0.0 0.9 0.00 0.00 0.00 95 1011.7
20260509113032 43 96 0.0 0.9 0.00 0.00 0.00 95 1011.7
20260509112532 43 96 0.0 1.7 0.00 0.00 0.00 95 1011.7
20260509112032 43 94 0.0 1.7 0.00 0.00 0.00 95 1011.7
20260509111532 43 7 0.0 0.9 0.00 0.00 0.00 95 1011.6
20260509111032 43 7 0.0 0.9 0.00 0.00 0.00 95 1011.7
20260509110531 43 8 0.0 0.9 0.00 0.00 0.00 95 1011.7
20260509110031 43 7 0.0 0.9 0.00 0.00 0.00 95 1011.6
20260509105530 42 7 0.0 0.9 0.00 0.00 0.00 94 1011.5
20260509105029 43 7 0.0 1.7 0.00 0.00 0.00 94 1011.5
20260509104529 43 7 0.0 1.7 0.00 0.00 0.00 95 1011.3
20260509104028 43 99 0.0 0.9 0.00 0.00 0.00 95 1011.4
20260509103528 43 99 0.0 0.0 0.00 0.00 0.00 95 1011.3
20260509103028 43 99 0.0 0.9 0.00 0.00 0.00 95 1011.3
20260509102528 43 99 0.0 0.9 0.00 0.00 0.00 95 1011.2
20260509102028 43 99 0.0 0.9 0.00 0.00 0.00 95 1011.3
20260509101535 43 99 0.0 0.9 0.00 0.00 0.00 94 1011.2
20260509101028 43 99 0.0 0.9 0.00 0.00 0.00 94 1011.2
20260509100526 43 99 0.0 0.9 0.00 0.00 0.00 94 1011.1
20260509100026 43 98 0.0 0.9 0.00 0.00 0.00 93 1011.1
20260509095525 44 99 0.0 0.9 0.00 0.00 0.00 93 1011.0
20260509095023 44 99 0.0 0.9 0.00 0.00 0.00 93 1011.1
20260509094530 45 99 0.0 0.9 0.00 0.00 0.00 92 1011.0
20260509094020 45 98 0.0 0.9 0.00 0.00 0.00 94 1011.0
20260509093520 45 11 0.0 0.9 0.00 0.00 0.00 93 1011.0
20260509093020 45 11 0.0 0.9 0.00 0.00 0.00 93 1011.0
20260509092518 46 11 0.0 0.9 0.00 0.00 0.00 93 1011.0
20260509092018 46 11 0.0 0.9 0.00 0.00 0.00 93 1011.1
20260509091517 46 347 0.9 0.9 0.00 0.00 0.00 92 1011.2
20260509091016 46 347 0.0 0.9 0.00 0.00 0.00 93 1011.3
20260509090518 46 347 0.0 1.7 0.00 0.00 0.00 92 1011.3
20260509090016 46 347 0.0 1.7 0.00 0.00 0.00 92 1011.3
20260509085514 46 347 0.9 1.7 0.00 0.00 0.00 92 1011.3
20260509085013 46 98 0.0 0.9 0.00 0.00 0.00 91 1011.2
20260509084512 47 98 0.0 0.9 0.00 0.00 0.00 91 1011.3
20260509084014 47 98 0.0 1.7 0.00 0.00 0.00 90 1011.4
20260509083510 47 122 0.0 1.7 0.00 0.00 0.00 91 1011.2
20260509083009 47 143 0.0 0.0 0.00 0.00 0.00 90 1011.3
20260509082514 48 158 0.0 0.9 0.00 0.00 0.00 89 1011.3
20260509082007 48 158 0.0 2.6 0.00 0.00 0.00 89 1011.4
20260509081507 48 174 0.0 2.6 0.00 0.00 0.00 89 1011.4
20260509081007 49 254 0.0 3.5 0.00 0.00 0.00 89 1011.5
20260509080506 49 126 0.9 3.5 0.00 0.00 0.00 89 1011.5
20260509080006 48 147 1.7 3.5 0.00 0.00 0.00 89 1011.5
20260509075505 48 159 0.9 3.5 0.00 0.00 0.00 89 1011.6
20260509075006 48 165 1.7 3.5 0.00 0.00 0.00 90 1011.6
20260509074503 48 143 0.0 1.7 0.00 0.00 0.00 89 1011.8
20260509074002 48 138 0.0 0.9 0.00 0.00 0.00 88 1011.8
20260509073501 48 138 0.0 0.9 0.00 0.00 0.00 88 1011.8
20260509073001 49 138 0.0 0.9 0.00 0.00 0.00 87 1011.8
20260509072600 49 138 0.0 0.9 0.00 0.00 0.00 87 1011.9
20260509072100 49 138 0.0 0.9 0.00 0.00 0.00 86 1011.9
20260509071603 49 138 0.0 0.9 0.00 0.00 0.00 86 1011.9
20260509071056 50 138 0.0 1.7 0.00 0.00 0.00 84 1012.1
20260509070556 50 138 0.0 2.6 0.00 0.00 0.00 85 1012.1
20260509070056 50 143 0.9 5.2 0.00 0.00 0.00 85 1012.1
20260509065555 50 182 1.7 5.2 0.00 0.00 0.00 85 1012.1
20260509065054 50 210 0.0 2.6 0.00 0.00 0.00 85 1012.0
20260509064558 50 152 0.0 1.7 0.00 0.00 0.00 84 1012.0
20260509064053 51 136 0.9 6.1 0.00 0.00 0.00 84 1012.1
20260509063551 51 135 1.7 6.1 0.00 0.00 0.00 84 1012.2
20260509063050 51 163 0.9 2.6 0.00 0.00 0.00 83 1012.4
20260509062552 51 145 0.9 3.5 0.00 0.00 0.00 83 1012.6
20260509062049 51 140 1.7 3.5 0.00 0.00 0.00 83 1012.6
20260509061601 51 191 1.7 5.2 0.00 0.00 0.00 83 1012.8
20260509061046 51 210 1.7 5.2 0.00 0.00 0.00 82 1012.9
20260509060546 52 136 0.9 4.3 0.00 0.00 0.00 82 1013.0
20260509060046 52 160 0.9 6.1 0.00 0.00 0.00 82 1013.1
20260509055546 52 150 1.7 6.1 0.00 0.00 0.00 82 1013.2
20260509055045 52 226 2.6 6.1 0.00 0.00 0.00 82 1013.2
20260509054601 52 163 2.6 6.1 0.00 0.00 0.00 82 1013.2
20260509054043 52 130 1.7 6.1 0.00 0.00 0.00 82 1013.3
20260509053545 52 154 1.7 6.1 0.00 0.00 0.00 82 1013.3
20260509053046 52 139 1.7 8.7 0.00 0.00 0.00 82 1013.4
20260509052542 52 216 1.7 7.0 0.00 0.00 0.00 82 1013.5
20260509052040 52 179 1.7 7.0 0.00 0.00 0.00 82 1013.6
20260509051539 52 195 2.6 8.7 0.00 0.00 0.00 82 1013.6
20260509051040 52 153 3.5 12.2 0.00 0.00 0.00 82 1013.7
20260509050540 52 159 3.5 12.2 0.00 0.00 0.00 82 1013.9
20260509050039 51 152 0.9 7.0 0.00 0.00 0.00 82 1013.9
20260509045538 51 173 0.9 5.2 0.00 0.00 0.00 82 1013.9
20260509045038 51 162 0.9 5.2 0.00 0.00 0.00 82 1013.7
20260509044536 51 153 0.0 5.2 0.00 0.00 0.00 81 1013.6
20260509044036 51 173 0.9 5.2 0.00 0.00 0.00 81 1013.7
20260509043537 51 150 2.6 6.1 0.00 0.00 0.00 81 1013.6
20260509043035 51 127 1.7 5.2 0.00 0.00 0.00 81 1013.7
20260509042534 51 141 0.9 3.5 0.00 0.00 0.00 80 1013.8
20260509042033 52 170 0.9 5.2 0.00 0.00 0.00 80 1013.9
20260509041532 52 208 0.9 5.2 0.00 0.00 0.00 80 1014.0
20260509041033 52 157 0.9 3.5 0.00 0.00 0.00 80 1013.9
20260509040530 52 132 0.9 3.5 0.00 0.00 0.00 79 1013.9
20260509040037 52 171 0.9 5.2 0.00 0.00 0.00 79 1014.0
20260509035530 52 160 0.9 5.2 0.00 0.00 0.00 79 1014.1
20260509035029 52 173 2.6 6.1 0.00 0.00 0.00 78 1014.1
20260509034530 52 172 1.7 6.1 0.00 0.00 0.00 78 1014.1
20260509034029 52 169 0.9 5.2 0.00 0.00 0.00 78 1014.2
20260509033530 52 122 1.7 6.1 0.00 0.00 0.00 78 1014.1
20260509033029 52 139 1.7 6.1 0.00 0.00 0.00 78 1014.1
20260509032528 52 74 0.9 4.3 0.00 0.00 0.00 77 1014.1
20260509032029 52 152 0.9 4.3 0.00 0.00 0.00 77 1014.1
20260509031529 52 138 0.9 6.1 0.00 0.00 0.00 77 1014.1
20260509031028 52 211 1.7 7.0 0.00 0.00 0.00 76 1014.2
20260509030528 52 145 1.7 7.8 0.00 0.00 0.00 76 1014.2
20260509030028 52 106 3.5 7.8 0.00 0.00 0.00 77 1014.2
20260509025527 52 229 1.7 4.3 0.00 0.00 0.00 76 1014.4
20260509025027 52 180 1.7 5.2 0.00 0.00 0.00 76 1014.4
20260509024526 52 140 0.9 5.2 0.00 0.00 0.00 76 1014.5
20260509024029 52 157 0.0 2.6 0.00 0.00 0.00 76 1014.5
20260509023527 53 152 0.0 5.2 0.00 0.00 0.00 75 1014.4
20260509023026 53 178 1.7 5.2 0.00 0.00 0.00 75 1014.5
20260509022530 53 157 1.7 5.2 0.00 0.00 0.00 75 1014.4
20260509022026 53 148 1.7 7.0 0.00 0.00 0.00 74 1014.4
20260509021526 53 129 2.6 7.0 0.00 0.00 0.00 74 1014.4
20260509021027 53 186 0.9 6.1 0.00 0.00 0.00 74 1014.3
20260509020526 53 173 1.7 6.1 0.00 0.00 0.00 74 1014.2
20260509020025 53 150 1.7 7.0 0.00 0.00 0.00 74 1014.2
20260509015525 53 149 0.9 7.0 0.00 0.00 0.00 73 1014.3
20260509015024 53 193 2.6 7.0 0.00 0.00 0.00 73 1014.3
20260509014535 53 122 2.6 4.3 0.00 0.00 0.00 73 1014.3
20260509014024 53 158 0.9 7.8 0.00 0.00 0.00 72 1014.4
20260509013524 53 193 1.7 7.8 0.00 0.00 0.00 72 1014.3
20260509013024 53 141 1.7 5.2 0.00 0.00 0.00 72 1014.3
20260509012523 53 172 1.7 5.2 0.00 0.00 0.00 72 1014.2
20260509012023 53 209 0.0 6.1 0.00 0.00 0.00 71 1014.3
20260509011525 54 181 0.9 7.8 0.00 0.00 0.00 71 1014.4
20260509011023 54 139 2.6 7.8 0.00 0.00 0.00 71 1014.3
20260509010522 54 127 0.9 3.5 0.00 0.00 0.00 70 1014.3
20260509010022 54 153 0.9 6.1 0.00 0.00 0.00 69 1014.2
20260509005522 54 141 2.6 6.1 0.00 0.00 0.00 69 1014.4
20260509005021 54 155 0.9 5.2 0.00 0.00 0.00 68 1014.2
20260509004520 54 174 1.7 6.1 0.00 0.00 0.00 67 1014.3
20260509004020 55 134 2.6 7.0 0.00 0.00 0.00 67 1014.0
20260509003520 55 162 3.5 7.0 0.00 0.00 0.00 66 1014.1
20260509003020 55 136 1.7 4.3 0.00 0.00 0.00 65 1014.2
20260509002519 55 236 1.7 4.3 0.00 0.00 0.00 64 1014.1
20260509002020 56 146 0.0 5.2 0.00 0.00 0.00 63 1014.0
20260509001525 56 169 2.6 5.2 0.00 0.00 0.00 62 1014.0
20260509001020 56 207 0.9 4.3 0.00 0.00 0.00 62 1014.0
20260509000520 57 177 0.9 7.8 0.00 0.00 0.00 61 1013.9
20260509000019 57 177 3.5 7.8 0.00 0.00 0.00 60 1013.9
20260508235519 57 172 1.7 7.8 0.00 0.00 0.00 59 1013.9
20260508235019 57 149 1.7 7.0 0.00 0.00 0.00 59 1013.7
20260508234518 57 146 1.7 7.8 0.00 0.00 0.00 58 1013.7
20260508234018 58 120 2.6 9.6 0.00 0.00 0.00 58 1013.9
20260508233519 58 193 3.5 9.6 0.00 0.00 0.00 57 1013.8
20260508233018 58 203 3.5 7.0 0.00 0.00 0.00 57 1013.8
20260508232517 58 173 0.9 10.4 0.00 0.00 0.00 57 1013.8
20260508232017 58 189 3.5 10.4 0.00 0.00 0.00 56 1013.8
20260508231517 58 115 3.5 7.0 0.00 0.00 0.00 55 1013.6
20260508231017 58 164 1.7 6.1 0.00 0.00 0.00 55 1013.9
20260508230517 59 189 2.6 9.6 0.00 0.00 0.00 54 1014.0
20260508230017 59 204 2.6 9.6 0.00 0.00 0.00 54 1014.0
20260508225516 59 136 2.6 9.6 0.00 0.00 0.00 53 1014.0